Imperial, CA

2:04 AM PDT on April 24, 2017 (GMT -0700)
Imperial County

Weather History for KIPL - January, 2013

Change the Weather History Date:

Tuesday, January 1, 2013

  Actual Average Record
Temperature  
Mean Temperature 46 °F -  
Max Temperature 57 °F 67 °F 79 °F (1981)
Min Temperature 36 °F 41 °F 27 °F (2015)
Degree Days  
Heating Degree Days 18    
Moisture  
Dew Point 27 °F    
Average Humidity 52    
Maximum Humidity 79    
Minimum Humidity 24    
Precipitation  
Precipitation 0.00 in - - ()
Sea Level Pressure  
Sea Level Pressure 30.23 in    
Wind  
Wind Speed 2 mph (West)    
Max Wind Speed 7 mph    
Max Gust Speed -    
Visibility 10 miles    
Events      
Averages and records for this station are not official NWS values.
T = Trace of Precipitation, MM = Missing Value Source: NWS Daily Summary

Daily Weather History Graph

Daily Weather History Graph

Search for Another Location

Airport or City:

Trip Planner

Search our weather history database for the weather conditions in past years. The results will help you decide how hot, cold, wet, or windy it might be!

Date:

Astronomy

Jan. 01, 2013 Rise Set
Actual Time 6:44 AM PST 4:47 PM PST
Civil Twilight 6:17 AM PST 5:14 PM PST
Nautical Twilight 5:47 AM PST 5:45 PM PST
Astronomical Twilight 5:17 AM PST 6:15 PM PST
Moon 9:07 PM PST (1/1) 9:13 AM PST (1/1)
Length of Visible Light 10h 56m
Length of Day
10h 02m
Waning Gibbous, 82% of the Moon is Illuminated
Jan 1
Waning Gibbous
Jan 4
Last Quarter
Jan 11
New
Jan 18
First Quarter
Jan 26
Full

Hourly Weather History & Observations

Time (PST) Temp. Windchill Dew Point Humidity Pressure Visibility Wind Dir Wind Speed Gust Speed Precip Events Conditions
12:53 AM 42.1 °F - 27.0 °F 55% 30.24 in 8.0 mi Calm Calm - N/A   Clear
1:53 AM 37.0 °F 34.5 °F 28.9 °F 73% 30.25 in 7.0 mi West 3.5 mph - N/A   Clear
2:53 AM 37.4 °F 33.8 °F 28.4 °F 70% 30.24 in 10.0 mi West 4.6 mph - N/A   Clear
3:53 AM 39.2 °F 37.0 °F 30.2 °F 70% 30.24 in 10.0 mi WSW 3.5 mph - N/A   Clear
4:53 AM 36.0 °F - 28.9 °F 76% 30.25 in 10.0 mi Calm Calm - N/A   Clear
5:53 AM 37.9 °F - 28.9 °F 70% 30.25 in 10.0 mi Calm Calm - N/A   Clear
6:53 AM 36.0 °F 33.3 °F 30.0 °F 79% 30.26 in 10.0 mi West 3.5 mph - N/A   Clear
7:53 AM 39.9 °F - 30.0 °F 68% 30.27 in 10.0 mi Calm Calm - N/A   Clear
8:53 AM 45.0 °F - 32.0 °F 60% 30.27 in 10.0 mi Calm Calm - N/A   Clear
9:53 AM 48.9 °F - 35.1 °F 59% 30.30 in 10.0 mi West 3.5 mph - N/A   Clear
10:53 AM 55.0 °F - 27.0 °F 34% 30.27 in 10.0 mi North 5.8 mph - N/A   Clear
11:53 AM 55.9 °F - 23.0 °F 28% 30.24 in 10.0 mi North 6.9 mph - N/A   Clear
12:53 PM 57.0 °F - 21.0 °F 25% 30.21 in 10.0 mi Calm Calm - N/A   Clear
1:53 PM 57.9 °F - 21.0 °F 24% 30.19 in 10.0 mi Variable 4.6 mph - N/A   Clear
2:53 PM 57.9 °F - 24.1 °F 27% 30.18 in 10.0 mi Calm Calm - N/A   Clear
3:53 PM 57.0 °F - 24.1 °F 28% 30.18 in 10.0 mi NW 5.8 mph - N/A   Clear
4:53 PM 55.9 °F - 25.0 °F 30% 30.18 in 10.0 mi North 4.6 mph - N/A   Clear
5:53 PM 52.0 °F - 28.0 °F 40% 30.19 in 10.0 mi Calm Calm - N/A   Clear
6:53 PM 51.1 °F - 27.0 °F 39% 30.21 in 10.0 mi Calm Calm - N/A   Clear
7:53 PM 46.0 °F 44.8 °F 30.0 °F 54% 30.21 in 10.0 mi WNW 3.5 mph - N/A   Clear
8:53 PM 42.1 °F 40.2 °F 28.9 °F 60% 30.22 in 10.0 mi WSW 3.5 mph - N/A   Clear
9:53 PM 42.1 °F 39.2 °F 28.0 °F 58% 30.23 in 10.0 mi WSW 4.6 mph - N/A   Clear
10:53 PM 39.9 °F 36.7 °F 26.1 °F 58% 30.22 in 10.0 mi WSW 4.6 mph - N/A   Clear
11:53 PM 36.0 °F 32.1 °F 25.0 °F 64% 30.20 in 10.0 mi West 4.6 mph - N/A   Clear